Regional Weather Roundup
Issued by NWS

Home | Current Version | Previous Version | Text Only | Print | Product List | Glossary On
Versions: 1 2 3 4 5 6 7 8 9 10 11 12 13 14 15 16 17 18 19 20 21 22 23 24 25 26 27 28 29 30 31 32 33 34 35 36 37 38 39 40 41 42 43 44 45 46 47 48 49 50
000
ASUS45 KTFX 010210
RWRMT
MONTANA REGIONAL WEATHER ROUNDUP
NATIONAL WEATHER SERVICE GREAT FALLS MT
800 PM MDT TUE JUN 30 2015

NOTE: "FAIR" INDICATES FEW OR NO CLOUDS BELOW 12000 FEET WITH NO
SIGNIFICANT WEATHER AND/OR OBSTRUCTIONS TO VISIBILITY.

MTZ001>007-043-010300-
WEST OF THE DIVIDE

CITY           SKY/WX    TMP DP  RH WIND       PRES   REMARKS
KALISPELL      CLEAR     88  47  24 N8        29.95F
MISSOULA       MOSUNNY   89  43  20 NW13      29.97S
BUTTE          SUNNY     83  44  25 N10       30.11S
MULLAN PASS    SUNNY     72  45  37 NW5       30.21S
DEER LODGE       N/A     81  48  32 NW10      30.10R
EUREKA           N/A     88  52  29 NW3       29.95F
HAMILTON         N/A     86  48  26 N8        29.99S
$$

MTZ008-052>055-010300-
SOUTHWEST MONTANA

CITY           SKY/WX    TMP DP  RH WIND       PRES   REMARKS
BOZEMAN        SUNNY     84  50  30 N10       30.01R
DILLON         SUNNY     85  51  31 NE10      30.05S
W YELLOWSTONE  SUNNY     77  50  38 SW9       30.19R
$$

MTZ009-010-012-014-046-048-049-054-010300-
EAST SLOPES AND CENTRAL MONTANA

CITY           SKY/WX    TMP DP  RH WIND       PRES   REMARKS
CUT BANK       SUNNY     78  54  43 NE17      30.01R
GREAT FALLS    SUNNY     84  48  28 N17       29.97R
MALMSTROM AFB  SUNNY     85  48  28 NE20      29.97R
HELENA         SUNNY     90  45  21 N14       29.97S
$$

MTZ011-013-016-021-045-047-050-051-010300-
NORTH CENTRAL MONTANA

CITY           SKY/WX    TMP DP  RH WIND       PRES   REMARKS
HAVRE          SUNNY     83  53  35 N17       29.92R HAZE
LEWISTOWN      SUNNY     81  51  35 N10       30.01R
CHINOOK          N/A     81  55  41 N10       29.91R
FORT BENTON      N/A     84  52  32 N13       29.94R
$$

MTZ017>020-022>027-061-062-010300-
NORTHEAST MONTANA

CITY           SKY/WX    TMP DP  RH WIND       PRES   REMARKS
JORDAN           N/A     86  53  32 NW18G29   29.86R
SIDNEY         PTCLDY    73  61  64 NE15      29.87R
WOLF POINT     PTCLDY    72  59  63 E17G25    29.85R HAZE
PLENTYWOOD       N/A     64  61  88 E10       29.92R
POPLAR           N/A     70  59  68 NE18G26   29.85R
$$

MTZ028>42-056>058-010300-
SOUTHCENTRAL AND SOUTHEAST MONTANA

CITY           SKY/WX    TMP DP  RH WIND       PRES   REMARKS
BAKER          CLEAR     78  65  63 NE15      29.87R
BILLINGS       PTCLDY    89  42  19 N13       29.94S
LIVINGSTON     SUNNY     87  47  24 N13       30.01R
MILES CITY     CLEAR     90  48  23 N21       29.83R
FORSYTH          N/A     90  43  19 NW12G21   29.85R
$$

REGIONAL REPORTS...DAKOTAS

CITY           SKY/WX    TMP DP  RH WIND       PRES   REMARKS
WILLISTON      MOCLDY    69  59  70 E16G22    29.91R HAZE
MINOT          CLOUDY    68  64  87 CALM      29.92R FOG
DICKINSON      CLOUDY    70  60  70 E12       29.86S
BEACH          LGT RAIN  68  68 100 SE6       29.86R
CROSBY         MOCLDY    63  63 100 E6        29.92F FOG
BISMARCK       CLOUDY    71  65  81 E10       29.88S
GRAND FORKS    CLOUDY    70  61  73 CALM      29.90S
FARGO          CLOUDY    70  62  76 NE3       29.90R
BUFFALO SD       N/A     79  68  69 S10       29.79R
RAPID CITY     CLEAR     77  69  76 E6        29.89S
$$

REGIONAL REPORTS...WYOMING/IDAHO/WASHINGTON

CITY           SKY/WX    TMP DP  RH WIND       PRES   REMARKS
GILLETTE       CLEAR     81  54  39 W8        29.96S
SHERIDAN       CLEAR     81  58  45 W9        29.96R
BUFFALO WY     PTCLDY    79  53  40 NW8       30.05R
CODY           MOCLDY    81  48  32 N7        30.06R
YELLOWSTONE LA   N/A     74  45  35 W6G16     30.30S
IDAHO FALLS    PTSUNNY   74  66  76 CALM      30.05R
SALMON         SUNNY     88  52  29 N14       29.93R
BOISE          MOSUNNY   98  42  14 N9        29.88S HX  94
SPOKANE        MOSUNNY   92  43  18 W5        29.95S
$$

REGIONAL REPORTS...ALBERTA

CITY           SKY/WX    TMP DP  RH WIND       PRES   REMARKS
EDMONTON       LGT RAIN  68  57  68 NW5       29.97R
CALGARY        PTSUNNY   68  59  73 NE7       30.04S SMOKE
MEDICINE HAT   SUNNY     73  54  49 N9        29.97R SMOKE
WATERTON GATE    N/A     73  59  60 NE7         N/A
CARDSTON         N/A    N/A N/A N/A NE9         N/A
MILK RIVER       N/A     75  57  53 N9          N/A
ONEFOUR          N/A     77  50  38 NW13        N/A
$$

REGIONAL REPORTS...SASKATCHEWAN

CITY           SKY/WX    TMP DP  RH WIND       PRES   REMARKS
SWIFT CURRENT  PTSUNNY   66  59  77 E12       29.95R HAZE
REGINA         MOCLDY    64  61  88 VRB2      29.92F SMOKE
CYPRESS HILLS    N/A     63  52  67 N7          N/A
VAL MARIE        N/A     73  55  53 NE17        N/A
ASSINIBOIA       N/A     72  57  60 SW5         N/A
$$



USA.gov is the U.S. government's official web portal to all federal, state and local government web resources and services.